Regional Weather Roundup
Issued by NWS

Current Version | Previous Version | Text Only | Print | Product List | Glossary On
Versions: 1 2 3 4 5 6 7 8 9 10 11 12 13 14 15 16 17 18 19 20 21 22 23 24 25 26 27 28 29 30 31 32 33 34 35 36 37 38 39 40 41 42 43 44 45 46 47 48 49 50
000
ASUS45 KBOU 280907
RWRCO

WEATHER ROUNDUP FOR COLORADO
NATIONAL WEATHER SERVICE DENVER/BOULDER CO
200 AM MST WED JAN 28 2015

NOTE: "FAIR" INDICATES FEW OR NO CLOUDS BELOW 12000 FEET WITH NO
SIGNIFICANT WEATHER AND/OR OBSTRUCTIONS TO VISIBILITY.

COZ001>005-013-030-031-281000-
...NORTHWEST COLORADO...

CITY           SKY/WX    TMP DP  RH WIND       PRES   REMARKS
CRAIG          CLOUDY    34  32  92 SE5       30.21S WCI  30
HAYDEN         CLOUDY    36  30  80 CALM      30.22R
MEEKER         CLOUDY    39  31  72 SW10      30.22S
MOUNT WERNER   NOT AVBL
STEAMBOAT SPGS CLOUDY    32  25  76 CALM      30.21R
WALDEN         CLOUDY    34  27  75 S14       30.18S WCI  24
$$

COZ006>008-011-281000-
...WEST CENTRAL VALLEYS...

CITY           SKY/WX    TMP DP  RH WIND       PRES   REMARKS
GRAND JUNCTION CLEAR     28  25  88 E5        30.24S WCI  23
MONTROSE       PTCLDY    33  26  75 S12       30.27S WCI  24
EAGLE          CLOUDY    32  27  80 CALM      30.25S
RIFLE          MOCLDY    31  26  82 CALM      30.24S
DELTA          PTCLDY    33  27  80 CALM      30.27S
NUCLA          PTCLDY    34  30  86 E3        30.31R
$$

COZ017>023-064>068-281000-
...SOUTHWEST COLORADO...

CITY           SKY/WX    TMP DP  RH WIND       PRES   REMARKS
DURANGO        CLOUDY    32  29  88 E3        30.28S
CORTEZ         CLEAR     29  27  92 E7        30.28S WCI  22
PAGOSA SPRINGS CLOUDY    30  29  94 CALM      30.29S
TELLURIDE      MOCLDY    34  24  65 CALM      30.33S
WOLF CREEK PAS NOT AVBL
$$

COZ009-010-012-014-032>034-037-058>063-281000-
...CENTRAL COLORADO...

CITY           SKY/WX    TMP DP  RH WIND       PRES   REMARKS
ASPEN          MOCLDY    31  22  69 S8        30.23F WCI  23
BUENA VISTA    CLOUDY    41  21  43 SW20G26   30.19F
COPPER MTN     MOCLDY    27  18  69 W15G26    30.28F WCI  15
BERTHOUD PASS  CLOUDY    18  12  79 NW32G44   30.21F HAZE    WCI  -3
COTTONWOOD PAS PTCLDY    37  18  44 W24G41    30.20F
GUNNISON       CLOUDY     9   0  66 CALM      30.33F
KREMMLING      CLOUDY    18  14  86 N3        30.24S
LEADVILLE      PTCLDY    29  17  61 NW12      30.24F WCI  19
MONARCH PASS   PTCLDY    23  21  93 W44G54    30.38S WCI   3
SALIDA         PTCLDY    45  22  40 W20G30    30.25F
SUNLIGHT       PTCLDY    30  27  86 CALM        N/A
WILKERSON PASS PTCLDY    27  14  59 W9G21     30.23F WCI  17
$$

COZ069>075-281000-
...SAN LUIS VALLEY/SANGRE DE CRISTO MOUNTAINS...

CITY           SKY/WX    TMP DP  RH WIND       PRES   REMARKS
ALAMOSA        CLOUDY    20  17  88 CALM      30.24F
LA VETA PASS   NOT AVBL
SAGUACHE       PTCLDY    32  25  74 CALM      30.26F
$$

COZ035-036-038>040-281000-
...NORTHERN COLORADO FRONT RANGE...

CITY           SKY/WX    TMP DP  RH WIND       PRES   REMARKS
DENVER INTL AP MOCLDY    42  25  50 W10       30.00S
DMNS CITY PARK   N/A     40  24  53 S3        30.01R
AURORA         PTCLDY    45  21  38 S6        30.02S
FRONT RANGE AP NOT AVBL
ERIE MUNI ARPT MOCLDY    53  21  28 W13G20    30.00S
BOULDER MUN AP MOCLDY    54  21  28 SW9G17    29.99F
CENTENNIAL     PTCLDY    41  22  46 SW8       30.02S
BROOMFIELD     MOCLDY    54  23  30 W38G49    29.99F
FORT COLLINS   MOCLDY    48  23  37 W3        30.00S
LONGMONT       MOCLDY    51  23  34 W5        30.00F
$$

COZ041-046-047-076>085-087-088-281000-
...PIKES PEAK/PALMER DIVIDE AND SOUTHERN FOOTHILLS...

CITY           SKY/WX    TMP DP  RH WIND       PRES   REMARKS
COLO. SPRINGS  PTCLDY    50  15  24 NW13      30.01S
A. F. ACADEMY  PTCLDY    50  15  24 NW18G30   30.05R
ELLICOTT       CLEAR    N/A N/A N/A CALM      30.01R
FALCON         CLEAR     48  14  25 NW21G26   30.04S
FORT CARSON    CLEAR     44  21  40 NW2       29.99R
LIMON          CLEAR     37  25  61 NW13      29.98S
MONUMENT HILL  CLEAR     41  18  38 W9        30.06R
TRINIDAD       PTCLDY    38  28  67 W14       30.03F
$$

COZ042>045-048>051-090-091-281000-
...NORTHEAST COLORADO...

CITY           SKY/WX    TMP DP  RH WIND       PRES   REMARKS
GREELEY ARPT   MOCLDY    32  23  69 CALM      29.96S
AKRON          PTCLDY    38  28  67 NW14      29.96R
BURLINGTON     CLEAR     36  29  75 NW13      29.89F
WRAY           CLEAR     37  30  77 NW5       29.90R
STERLING       PTCLDY    34  32  93 S6        29.95R WCI  29
HOLYOKE        CLEAR     43  30  61 NW14      29.92R
FORT MORGAN    PTCLDY    38  27  66 W7        29.96S
$$

COZ086-089-092>099-281000-
...SOUTHEAST COLORADO...

CITY           SKY/WX    TMP DP  RH WIND       PRES   REMARKS
PUEBLO         CLEAR     54  23  30 W24       29.96F
LA JUNTA       CLEAR     41  29  62 W12       29.95S
LAMAR          PTCLDY    36  31  82 SW8       29.91R
SPRINGFIELD      N/A     41  29  62 W8        29.95S
$$


USA.gov is the U.S. government's official web portal to all federal, state and local government web resources and services.